Regional Weather Roundup
Issued by NWS

Home | Current Version | Previous Version | Text Only | Print | Product List | Glossary On
Versions: 1 2 3 4 5 6 7 8 9 10 11 12 13 14 15 16 17 18 19 20 21 22 23 24 25 26 27
000
ASUS44 KBMX 192310
RWRAL

ALABAMA REGIONAL WEATHER ROUNDUP
NATIONAL WEATHER SERVICE BIRMINGHAM AL
600 PM CDT TUE SEP 19 2017

NOTE: "FAIR" INDICATES FEW OR NO CLOUDS BELOW 12,000 FEET
WITH NO SIGNIFICANT WEATHER AND/OR OBSTRUCTIONS TO VISIBILITY.

THE REMARK "TC" DENOTES TEMPERATURE IN DEGREES CELSIUS.

ALZ001>011-014-016>018-020-200000-
NORTH ALABAMA

CITY           SKY/WX    TMP DP  RH WIND       PRES   REMARKS
MUSCLE SHOALS  CLEAR     82  69  64 SE6       29.95R
HUNTSVILLE     PTCLDY    77  71  82 SE7       29.96R
DECATUR        CLEAR     77  73  87 SE3       29.96R
HALEYVILLE     FAIR      79  72  79 SE7       29.99R
GADSDEN        CLOUDY    71  71 100 S5        29.99R
$$

ALZ012-013-022-023-030>036-040>044-200000-
WEST CENTRAL ALABAMA

CITY           SKY/WX    TMP DP  RH WIND       PRES   REMARKS
TUSCALOOSA     PTCLDY    80  72  76 NE12G22   29.95R
DEMOPOLIS        N/A     89  71  55 CALM      29.91R HX  94
$$

ALZ015-024>026-033>036-041>044-200000-
CENTRAL ALABAMA

CITY           SKY/WX    TMP DP  RH WIND       PRES   REMARKS
BIRMINGHAM     LGT RAIN  73  71  93 SE6       30.00F
MONTGOMERY     PTCLDY    87  72  60 NW5       29.92R HX  93
SHELBY CO ARPT CLOUDY    74  73  97 VRB5      29.97F
MAXWELL AFB    PTCLDY    84  76  77 NW3       29.92R HX  92
GREENVILLE     FAIR      85  70  60 W3        29.93R
SELMA          MOCLDY    79  72  78 SW9G17    29.93R
PRATTVILLE     FAIR      83  75  77 CALM      29.92R HX  90
BESSEMER       MOCLDY    74  72  93 E5        29.99F
TALLADEGA      LGT RAIN N/A N/A N/A MISG      30.02R
PELL CITY      PTCLDY    70  70 100 CALM      30.01R
MARION         FAIR      85  73  67 S13       29.93R HX  92
SYLACAUGA      LGT RAIN  72  72 100 CALM      30.02R
$$

ALZ019-021-028-029-037-038-045>048-200000-
EAST CENTRAL ALABAMA

CITY           SKY/WX    TMP DP  RH WIND       PRES   REMARKS
ANNISTON       RAIN      71  68  90 SE5       30.00R
ALEXANDER CITY CLOUDY    75  69  81 N15G23    30.00R THUNDER
AUBURN         NOT AVBL
$$

ALZ051>064-200000-
SOUTHWEST ALABAMA

CITY           SKY/WX    TMP DP  RH WIND       PRES   REMARKS
MOBILE         CLOUDY    82  73  74 NW3       29.94S
BROOKLEY FIELD MOSUNNY   85  77  77 S5        29.94S HX  95
EVERGREEN      PTCLDY    83  73  72 CALM      29.94R
$$

ALZ049-050-065>069-200000-
SOUTHEAST ALABAMA

CITY           SKY/WX    TMP DP  RH WIND       PRES   REMARKS
DOTHAN         PTCLDY    82  74  76 CALM      29.97R
OZARK          PTCLDY    82  76  82 CALM      29.92S HX  90
TROY           PTCLDY    81  77  88 CALM      29.94R
EUFAULA        FAIR      85  77  77 CALM      29.92R HX  95
$$




USA.gov is the U.S. government's official web portal to all federal, state and local government web resources and services.